User: anonymous   Login
Location: Unspecified
(0.0000°N, 0.0000°E)
Time: 09:08:03
(UTC+00:00)
Language:

RESURS DK-1 - Orbit

View from above orbital plane
View from above orbital plane
View from above satellite
View from above satellite

Ground track
Ground track

The orbit data is extracted from the following two-line orbital elements,

1 29228U 06021A   14303.77059706  .00001891  00000-0  15559-3 0  3793
2 29228 069.9386 019.9391 0005004 337.6977 168.1752 15.00928358463913
Epoch (UTC): 30 October 2014 18:29:39
Eccentricity: 0.0005004
inclination: 69.9386°
perigee height: 560 km
apogee height: 567 km
right ascension of ascending node: 19.9391°
argument of perigee: 337.6977°
revolutions per day: 15.00928358
mean anomaly at epoch: 168.1752°
orbit number at epoch: 46391

The dashed part of the orbit path shows where the satellite is in the earth's shadow,  

DLR